Location: *
(51.2167°N, 10.0667°E)
Time: 11:24:24
(UTC+00:00)

CSL-04 Rocket - Pass Details

Date: 12 December 2019
Orbit: 807 x 859 km, 99.0° (Epoch: 20 January)

Event Time Altitude Azimuth Distance (km) Brightness Sun altitude
Rises 17:30:49 0° 158° (SSE) 3,312 6.7 -20.4°
Reaches altitude 10° 17:33:08 10° 157° (SSE) 2,386 5.9 -20.8°
Maximum altitude 17:38:24 80° 72° (ENE) 830 3.5 -21.6°
Drops below altitude 10° 17:43:44 10° 346° (NNW) 2,419 6.1 -22.4°
Sets 17:46:06 0° 346° (NNW) 3,361 6.9 -22.8°
